• In Hungary
  • List of Countries
  • For 7 days
  • Water Temperature
  • Satellite Maps
  • Weather Map
  • News
  • Weather Widgets
  • user-avatar
    Login

    Hourly Weather Kyrdzhali

    Today, 11 December, Monday

    Time Temperature Precipitation Wind Pressure Humidity
    00:00 +2°C° 0 mm 2 mps 728 mmHg 53%
    01:00 +2°C° 0 mm 2 mps 728 mmHg 53%
    02:00 +2°C° 0 mm 2 mps 728 mmHg 55%
    03:00 +2°C° 0 mm 2 mps 728 mmHg 56%
    04:00 +2°C° 0 mm 2 mps 728 mmHg 56%
    05:00 +2°C° 0 mm 2 mps 728 mmHg 57%
    06:00 +2°C° 0 mm 2 mps 728 mmHg 58%
    07:00 +2°C° 0 mm 2 mps 728 mmHg 59%
    08:00 +2°C° 0 mm 2 mps 728 mmHg 58%
    09:00 +3°C° 0 mm 3 mps 728 mmHg 56%
    10:00 +5°C° 0 mm 3 mps 728 mmHg 53%
    11:00 +8°C° 0 mm 4 mps 729 mmHg 51%
    12:00 +8°C° 0 mm 4 mps 729 mmHg 52%
    13:00 +9°C° 0 mm 5 mps 729 mmHg 52%
    14:00 +10°C° 0 mm 5 mps 729 mmHg 53%
    15:00 +10°C° 0 mm 4 mps 729 mmHg 59%
    16:00 +7°C° 0 mm 4 mps 729 mmHg 66%
    17:00 +7°C° 0 mm 3 mps 728 mmHg 72%
    18:00 +7°C° 0 mm 3 mps 729 mmHg 72%
    19:00 +5°C° 0 mm 3 mps 729 mmHg 73%
    20:00 +5°C° 0 mm 3 mps 729 mmHg 73%
    21:00 +4°C° 0 mm 3 mps 729 mmHg 73%
    22:00 +4°C° 0 mm 3 mps 729 mmHg 72%
    23:00 +5°C° 0 mm 2 mps 729 mmHg 72%

    Tomorrow, 12 December, Tuesday

    Time Temperature Precipitation Wind Pressure Humidity
    00:00 +5°C° 0 mm 2 mps 729 mmHg 72%
    01:00 +5°C° 0 mm 2 mps 729 mmHg 71%
    02:00 +5°C° 0 mm 2 mps 729 mmHg 71%
    03:00 +5°C° 0 mm 2 mps 729 mmHg 70%
    04:00 +5°C° 0 mm 2 mps 729 mmHg 69%
    05:00 +5°C° 0 mm 2 mps 729 mmHg 69%
    06:00 +5°C° 0 mm 2 mps 729 mmHg 68%
    07:00 +4°C° 0 mm 2 mps 730 mmHg 67%
    08:00 +4°C° 0 mm 2 mps 730 mmHg 66%
    09:00 +6°C° 0 mm 2 mps 730 mmHg 61%
    10:00 +9°C° 0 mm 2 mps 730 mmHg 55%
    11:00 +12°C° 0 mm 2 mps 731 mmHg 49%
    12:00 +12°C° 0 mm 2 mps 731 mmHg 49%
    13:00 +13°C° 0 mm 2 mps 730 mmHg 48%
    14:00 +14°C° 0 mm 2 mps 730 mmHg 47%
    15:00 +12°C° 0 mm 2 mps 730 mmHg 54%
    16:00 +10°C° 0 mm 2 mps 730 mmHg 61%
    17:00 +9°C° 0 mm 1 mps 730 mmHg 68%
    18:00 +9°C° 0 mm 1 mps 730 mmHg 70%
    19:00 +9°C° 0 mm 1 mps 730 mmHg 72%
    20:00 +8°C° 0 mm 1 mps 730 mmHg 74%
    21:00 +8°C° 0 mm 1 mps 730 mmHg 75%
    22:00 +8°C° 0 mm 1 mps 730 mmHg 75%
    23:00 +8°C° 0 mm 1 mps 730 mmHg 76%

    Day after tomorrow, 13 December, Wednesday

    Time Temperature Precipitation Wind Pressure Humidity
    00:00 +8°C° 0 mm 1 mps 730 mmHg 76%
    01:00 +7°C° 0 mm 1 mps 730 mmHg 77%
    02:00 +7°C° 0 mm 1 mps 730 mmHg 77%
    03:00 +7°C° 0 mm 1 mps 730 mmHg 78%
    04:00 +7°C° 0 mm 1 mps 730 mmHg 79%
    05:00 +7°C° 0 mm 1 mps 729 mmHg 80%
    06:00 +7°C° 0 mm 1 mps 729 mmHg 80%
    07:00 +7°C° 0 mm 1 mps 730 mmHg 80%
    08:00 +7°C° 0 mm 1 mps 730 mmHg 80%
    09:00 +9°C° 0 mm 1 mps 730 mmHg 74%
    10:00 +11°C° 0 mm 1 mps 730 mmHg 67%
    11:00 +13°C° 0 mm 1 mps 730 mmHg 61%
    12:00 +13°C° 0 mm 1 mps 730 mmHg 59%
    13:00 +14°C° 0 mm 1 mps 729 mmHg 57%
    14:00 +15°C° 0 mm 1 mps 729 mmHg 56%
    15:00 +13°C° 0 mm 1 mps 729 mmHg 62%
    16:00 +12°C° 0 mm 1 mps 729 mmHg 69%
    17:00 +11°C° 0 mm 1 mps 728 mmHg 75%
    18:00 +10°C° 0 mm 1 mps 728 mmHg 76%
    19:00 +10°C° 0 mm 1 mps 728 mmHg 78%
    20:00 +9°C° 0 mm 1 mps 728 mmHg 79%
    21:00 +9°C° 0 mm 1 mps 728 mmHg 78%
    22:00 +9°C° 0 mm 1 mps 728 mmHg 78%
    23:00 +9°C° 0 mm 1 mps 727 mmHg 77%

    14 December, Thursday

    Time Temperature Precipitation Wind Pressure Humidity
    00:00 +9°C° 0 mm 1 mps 727 mmHg 77%
    01:00 +9°C° 0 mm 1 mps 727 mmHg 77%
    02:00 +9°C° 0 mm 1 mps 727 mmHg 76%
    03:00 +9°C° 0 mm 1 mps 726 mmHg 76%
    04:00 +9°C° 0 mm 1 mps 726 mmHg 76%
    05:00 +9°C° 0 mm 1 mps 726 mmHg 77%
    06:00 +9°C° 0 mm 1 mps 726 mmHg 77%
    07:00 +9°C° 0 mm 1 mps 726 mmHg 78%
    08:00 +9°C° 0 mm 1 mps 726 mmHg 78%
    09:00 +9°C° 0 mm 0 mps 727 mmHg 73%
    10:00 +10°C° 0 mm 0 mps 727 mmHg 68%
    11:00 +12°C° 0 mm 0 mps 727 mmHg 62%
    12:00 +13°C° 0 mm 1 mps 727 mmHg 60%
    13:00 +14°C° 0 mm 1 mps 726 mmHg 58%
    14:00 +14°C° 0 mm 1 mps 726 mmHg 56%
    15:00 +13°C° 0 mm 1 mps 726 mmHg 62%
    16:00 +12°C° 0 mm 1 mps 726 mmHg 68%
    17:00 +11°C° 0 mm 1 mps 726 mmHg 73%
    18:00 +10°C° 0 mm 1 mps 726 mmHg 76%
    19:00 +10°C° 0 mm 1 mps 726 mmHg 79%
    20:00 +9°C° 0 mm 1 mps 726 mmHg 82%
    21:00 +9°C° 0 mm 1 mps 726 mmHg 83%
    22:00 +8°C° 0 mm 1 mps 726 mmHg 84%
    23:00 +8°C° 0 mm 1 mps 726 mmHg 86%

    15 December, Friday

    Time Temperature Precipitation Wind Pressure Humidity
    00:00 +8°C° 0 mm 1 mps 725 mmHg 85%
    01:00 +8°C° 0 mm 1 mps 725 mmHg 85%
    02:00 +7°C° 0 mm 1 mps 725 mmHg 84%
    03:00 +7°C° 0 mm 1 mps 725 mmHg 83%
    04:00 +7°C° 0 mm 1 mps 725 mmHg 81%
    05:00 +7°C° 0 mm 1 mps 725 mmHg 80%
    06:00 +7°C° 0 mm 1 mps 725 mmHg 79%
    07:00 +7°C° 0 mm 1 mps 725 mmHg 78%
    08:00 +7°C° 0 mm 1 mps 725 mmHg 77%
    09:00 +8°C° 0 mm 2 mps 725 mmHg 71%
    10:00 +10°C° 0 mm 2 mps 726 mmHg 65%
    11:00 +12°C° 0 mm 2 mps 726 mmHg 60%
    12:00 +12°C° 0 mm 3 mps 725 mmHg 59%
    13:00 +13°C° 0 mm 3 mps 725 mmHg 58%
    14:00 +13°C° 0 mm 4 mps 724 mmHg 57%
    15:00 +12°C° 0 mm 4 mps 724 mmHg 64%
    16:00 +11°C° 0 mm 4 mps 724 mmHg 71%
    17:00 +10°C° 0 mm 4 mps 724 mmHg 78%
    18:00 +10°C° 0 mm 4 mps 724 mmHg 79%
    19:00 +8°C° 0 mm 4 mps 723 mmHg 79%
    20:00 +8°C° 0 mm 4 mps 723 mmHg 80%
    21:00 +8°C° 0 mm 4 mps 723 mmHg 80%
    22:00 +8°C° 0 mm 4 mps 723 mmHg 80%
    23:00 +8°C° 0 mm 4 mps 723 mmHg 81%

    16 December, Saturday

    Time Temperature Precipitation Wind Pressure Humidity
    00:00 +8°C° 0 mm 4 mps 723 mmHg 81%
    01:00 +8°C° 0 mm 4 mps 723 mmHg 82%
    02:00 +8°C° 0 mm 4 mps 723 mmHg 83%
    03:00 +8°C° 0 mm 4 mps 723 mmHg 84%
    04:00 +8°C° 0 mm 4 mps 723 mmHg 85%
    05:00 +8°C° 0 mm 4 mps 722 mmHg 86%
    06:00 +8°C° 0 mm 4 mps 723 mmHg 87%
    07:00 +8°C° 0 mm 4 mps 723 mmHg 87%
    08:00 +10°C° 0 mm 4 mps 723 mmHg 88%
    09:00 +11°C° 0 mm 4 mps 723 mmHg 83%
    10:00 +12°C° 0 mm 5 mps 723 mmHg 77%
    11:00 +13°C° 0 mm 5 mps 723 mmHg 72%
    12:00 +13°C° 0 mm 5 mps 723 mmHg 70%
    13:00 +13°C° 0 mm 5 mps 723 mmHg 69%
    14:00 +14°C° 0 mm 5 mps 723 mmHg 67%
    15:00 +13°C° 0 mm 4 mps 723 mmHg 72%
    16:00 +12°C° 0 mm 4 mps 723 mmHg 76%
    17:00 +11°C° 0 mm 3 mps 723 mmHg 81%
    18:00 +11°C° 0.1 mm 3 mps 724 mmHg 83%
    19:00 +11°C° 0.1 mm 3 mps 724 mmHg 85%
    20:00 +10°C° 0.1 mm 2 mps 724 mmHg 87%
    21:00 +10°C° 0.1 mm 2 mps 724 mmHg 89%
    22:00 +10°C° 0.1 mm 2 mps 724 mmHg 90%
    23:00 +10°C° 0.1 mm 2 mps 724 mmHg 92%
    Show more